Regional Weather Roundup
Issued by NWS

Home | Current Version | Previous Version | Graphics & Text | Print | Product List | Glossary On
Versions: 1 2 3 4 5 6 7 8 9 10 11 12 13 14 15 16 17 18 19 20 21 22 23 24 25 26 27 28 29 30 31 32 33 34 35 36 37 38 39 40 41 42 43 44 45 46 47 48 49
000
ASUS45 KBOU 191210
RWRCO

WEATHER ROUNDUP FOR COLORADO
NATIONAL WEATHER SERVICE PUEBLO CO
500 AM MST MON FEB 19 2018

NOTE: "FAIR" INDICATES FEW OR NO CLOUDS BELOW 12000 FEET WITH NO
SIGNIFICANT WEATHER AND/OR OBSTRUCTIONS TO VISIBILITY.

COZ001>005-013-030-031-191300-
...NORTHWEST COLORADO...

CITY           SKY/WX    TMP DP  RH WIND       PRES   REMARKS
CRAIG          CLOUDY    24  20  84 N7        29.35F WCI  16
HAYDEN         MOCLDY    27  23  85 E3        29.36F
MEEKER         MOCLDY    38  27  64 SW13      29.33F
RABBIT EARS PA NOT AVBL
STEAMBOAT SPGS FAIR      32  29  90 E17       29.35F WCI  21
WALDEN         CLOUDY    30  23  74 SW15G23   29.39R WCI  19
$$

COZ006>008-011-191300-
...WEST CENTRAL VALLEYS...

CITY           SKY/WX    TMP DP  RH WIND       PRES   REMARKS
GRAND JUNCTION MOCLDY    45  29  53 S16       29.39F
MONTROSE       MOCLDY    42  26  53 SW17G30   29.51F
EAGLE          NOT AVBL
RIFLE          CLOUDY    45  26  47 S17       29.40S
DELTA          NOT AVBL
NUCLA          CLOUDY    43  25  49 S21G30    29.53F
$$

COZ017>023-064>068-191300-
...SOUTHWEST COLORADO...

CITY           SKY/WX    TMP DP  RH WIND       PRES   REMARKS
DURANGO        CLOUDY    36  33  89 SW8       29.64F
CORTEZ         CLOUDY    43  27  53 S14       29.58F
PAGOSA SPRINGS FLURRIES  37  28  72 S20G25    29.65F
TELLURIDE      LGT SNOW  29  26  88 CALM      29.58F
WOLF CREEK PAS CLOUDY    19  19 100 S29G46    29.62F WCI   1
$$

COZ009-010-012-014-032>034-037-058>063-191300-
...CENTRAL COLORADO...

CITY           SKY/WX    TMP DP  RH WIND       PRES   REMARKS
ASPEN          CLOUDY    35  22  58 SE10      29.45F WCI  27
BUENA VISTA    FAIR      34  20  57 S13G28    29.51S WCI  25
COPPER MTN     CLOUDY    23  14  68 S30G39    29.51S WCI   5
BERTHOUD PASS  FAIR      16   5  62 SW22G43   29.48S WCI  -2
COTTONWOOD PAS CLOUDY    34  19  55 SW8       29.53S WCI  27
GUNNISON       CLOUDY    23  18  81 S3        29.53F
KREMMLING      CLOUDY    37  32  81 W5        29.43F
LEADVILLE      CLOUDY    26  14  60 SW16G22   29.48F WCI  14
MONARCH PASS   PTCLDY    19  14  79 SW33G39   29.66S WCI   0
SALIDA         MOCLDY    38  22  51 S12G21    29.60S
SUNLIGHT       LGT SNOW  21  19  93 SW21G36   29.44F VSB 3/4 WCI   6
WILKERSON PASS MOCLDY    21  18  86 S15G24    29.53F WCI   8
$$

COZ069>075-191300-
...SAN LUIS VALLEY/SANGRE DE CRISTO MOUNTAINS...

CITY           SKY/WX    TMP DP  RH WIND       PRES   REMARKS
ALAMOSA        PTCLDY    33  26  75 SW32G46   29.59F WCI  19
DEL NORTE      FAIR      35  20  54 SW10G17   29.59F WCI  27
LA VETA PASS   CLOUDY    27  21  80 S47G84    29.54R WCI   7
SAGUACHE       MOCLDY    32  21  64 S10       29.59S WCI  24
$$

COZ035-036-038>040-191300-
...NORTHERN COLORADO FRONT RANGE...

CITY           SKY/WX    TMP DP  RH WIND       PRES   REMARKS
DENVER INTL AP LGT SNOW  12   9  87 E10       29.68R FOG     WCI  -1
DMNS CITY PARK NOT AVBL
AURORA         NOT AVBL
FRONT RANGE AP LGT SNOW  14  11  89 NE8       29.69R WCI   2
ERIE MUNI ARPT LGT SNOW  13  10  87 NE9       29.76S WCI   1
BOULDER MUN AP LGT SNOW  14  12  92 NE8       29.69S WCI   3
CENTENNIAL     LGT SNOW  13  11  92 E9        29.64R VSB 1   WCI   1
BROOMFIELD     LGT SNOW  14  12  92 NE7       29.67R WCI   4
LOVELAND       FLURRIES  11   8  88 E13       29.73R WCI  -4
LONGMONT       LGT SNOW  15  11  83 NE7       29.74R WCI   6
$$

COZ041-046-047-076>085-087-088-191300-
...PIKES PEAK/PALMER DIVIDE AND SOUTHERN FOOTHILLS...

CITY           SKY/WX    TMP DP  RH WIND       PRES   REMARKS
COLO. SPRINGS  PTCLDY    24  18  77 E6        29.59R WCI  17
A. F. ACADEMY  MOCLDY    20  18  91 N9        29.56S WCI  10
SCHRIEVER AFB  NOT AVBL
CHEYENNE MTN   NOT AVBL
ELLICOTT         N/A    N/A N/A N/A NE8         N/A
FALCON         CLOUDY    17  16  95 NE9       29.58R WCI   5
FORT CARSON    PTCLDY    21  18  87 S12       29.59R WCI   9
LIMON          LGT SNOW  11  10  96 N12       29.65S FOG     WCI  -3
MONUMENT HILL  FOG      N/A N/A N/A NE6       29.57S VSB 1/2
CANON CITY     MOCLDY    27  21  80 SE18      29.63R WCI  13
WALSENBURG     FAIR      48  23  37 SW28G39   29.54R
TRINIDAD       CLEAR     27  18  69 NE14G20   29.57R WCI  16
$$

COZ042>045-048>051-090-091-191300-
...NORTHEAST COLORADO...

CITY           SKY/WX    TMP DP  RH WIND       PRES   REMARKS
GREELEY ARPT   LGT SNOW  10   7  87 NE13      29.77R FOG     WCI  -5
AKRON          LGT SNOW   9   7  92 N14       29.73R FOG     WCI  -7
BURLINGTON     FLURRIES  13  11  92 N20G26    29.72R WCI  -5
WRAY           LGT SNOW  14  10  85 N13       29.79R WCI   0
YUMA           NOT AVBL
STERLING       LGT SNOW  12   9  85 N14G21    29.78R WCI  -3
HOLYOKE        LGT SNOW  14  10  85 N15G22    29.77F WCI  -1
FORT MORGAN    LGT SNOW  10   7  85 N10       29.76R WCI  -3
$$

COZ086-089-092>099-191300-
...SOUTHEAST COLORADO...

CITY           SKY/WX    TMP DP  RH WIND       PRES   REMARKS
PUEBLO         CLOUDY    22  18  85 E21       29.65R WCI   6
LA JUNTA       CLOUDY    22  16  78 E14       29.71R WCI   9
LAMAR          FLURRIES  22  15  75 NE10      29.71R WCI  11
SPRINGFIELD      N/A     21  21 100 NE15      29.67R WCI   8
$$





USA.gov is the U.S. government's official web portal to all federal, state and local government web resources and services.